User: anonymous   Login
Location: Unspecified
(0.0000°N, 0.0000°E)
Time: 15:03:44
(UTC+00:00)
Language:

IGS 5A - Orbit

View from above orbital plane
View from above orbital plane
View from above satellite
View from above satellite

Ground track
Ground track

The orbit data is extracted from the following two-line orbital elements,

1 36104U 09066A   18140.90699572 0.00000350  00000-0  33239-4 0    01
2 36104  97.6897 213.9611 0002000 327.8953  32.1045 14.93577278    02
Epoch (UTC): 20 May 2018 21:46:04
Eccentricity: 0.0002000
inclination: 97.6897°
perigee height: 585 km
apogee height: 588 km
right ascension of ascending node: 213.9611°
argument of perigee: 327.8953°
revolutions per day: 14.93577278
mean anomaly at epoch: 32.1045°
orbit number at epoch: 0

The dashed part of the orbit path shows where the satellite is in the earth's shadow,  

DLR